RH
73 74 74 74 74 75 76 77 79 80 81 81 81 81 81 81 79 76 75 73 71 70 69 68 68 69 71 73 75 77 78 80 82 83 84 83 82 83 83 84 84 84 83 82 81 79 77 76 74 73 71 70 69 68 67 66 65 64 62 61 60 58 56 54 52 48 45 42 38 35 32 29 27 25 24 23 22 21 20 19 19 19 19 19 19 19
73 74 73 72 72 71 71 72 72 73 74 75 75 76 77 77 76 76 76 76 72 70 68 64 64 65 65 66 67 68 70 72 74 75 76 75 76 78 79 80 81 82 82 82 82 80 79 78 76 75 73 71 69 67 64 62 59 56 53 51 48 45 43 40 38 36 34 32 30 29 27 26 26 25 25 25 24 24 23 23 22 21 21 21 21 21
61 61 60 59 59 58 57 57 56 56 55 56 56 57 58 58 58 59 60 61 60 59 57 55 56 57 55 55 54 54 55 55 56 56 56 55 56 56 57 57 57 58 59 58 58 57 57 56 55 54 53 51 49 47 46 44 42 41 39 37 36 34 33 32 32 31 30 29 29 28 28 27 26 26 26 25 25 25 24 24 23 22 22 21 21 21
42 41 40 39 38 37 37 36 36 36 35 35 35 35 36 35 36 36 36 37 37 37 36 35 37 38 37 36 36 36 36 36 36 36 35 35 35 35 34 34 34 34 34 34 35 34 34 34 34 34 33 33 33 32 32 31 31 31 30 30 29 29 28 28 28 27 27 26 26 25 25 24 24 23 23 22 22 22 21 21 20 20 19 19 18 18
28 28 27 27 27 27 27 27 27 28 28 28 29 29 29 29 29 30 29 30 30 30 30 30 31 31 31 31 31 31 32 32 31 31 31 31 31 31 31 30 30 30 30 29 30 30 30 30 30 30 30 30 30 29 29 29 29 29 29 29 29 28 28 28 28 27 27 27 27 26 26 26 26 25 25 24 24 23 23 22 22 21 20 20 19 18
27 27 28 28 28 29 29 29 29 29 29 30 30 30 30 30 30 31 31 31 31 32 31 31 32 33 33 33 33 33 33 33 32 32 33 33 33 32 32 32 31 31 31 30 30 30 30 30 29 29 29 29 30 30 30 30 29 29 29 29 29 29 29 29 30 30 30 30 30 30 30 29 29 29 29 29 28 28 28 28 27 26 25 25 24 23
28 28 28 28 28 28 28 28 28 28 29 29 29 29 29 29 29 29 30 29 30 30 30 30 30 30 30 31 31 30 30 30 30 30 30 29 29 29 29 29 28 28 28 28 27 27 26 26 26 25 25 25 25 25 25 25 25 25 24 24 24 25 25 25 26 26 27 27 28 28 28 28 28 29 29 29 28 28 29 29 29 29 28 27 27 27
27 28 28 28 28 28 28 28 29 28 29 29 29 29 29 29 29 28 28 28 28 28 28 28 28 28 28 28 28 28 28 27 26 26 26 26 25 25 25 24 24 23 23 23 23 22 22 22 21 21 20 20 19 19 18 18 18 18 18 18 18 18 19 19 20 20 21 21 22 22 23 24 24 25 25 26 26 26 26 26 27 27 27 27 27 27
29 30 30 30 30 30 30 30 30 30 30 30 30 30 30 29 29 29 28 28 28 28 28 27 27 28 28 28 27 27 27 26 26 25 25 24 24 23 22 22 21 20 19 19 18 18 18 17 17 17 16 16 16 15 14 14 14 13 13 13 13 13 13 13 13 14 14 14 15 15 16 16 17 17 18 19 20 20 20 20 21 21 22 22 23 23
32 32 32 31 31 30 30 30 30 30 29 29 30 30 31 31 31 30 30 30 29 29 29 29 29 30 30 30 29 29 29 28 27 26 26 25 24 24 23 22 22 21 20 19 19 18 18 17 17 16 16 16 16 15 14 14 13 12 12 12 11 11 11 11 10 10 10 10 10 11 11 11 11 12 12 12 13 13 14 14 14 14 15 15 16 16
32 32 31 30 29 29 28 28 28 29 29 29 29 30 30 31 32 32 32 31 31 30 30 30 29 29 29 29 28 28 28 27 27 26 26 25 25 24 24 23 23 22 21 19 19 18 17 17 16 16 16 16 15 15 15 14 14 13 12 11 11 10 10 10 9 9 9 9 9 9 9 9 9 9 9 9 10 10 10 10 11 11 11 11 11 11
28 27 25 25 24 24 25 25 26 27 28 28 28 28 28 27 27 27 27 26 25 24 23 23 23 22 22 23 24 25 24 24 24 23 23 23 23 23 22 21 20 18 17 15 14 13 12 12 11 11 10 10 10 10 10 11 11 11 11 10 10 10 9 9 8 8 8 7 7 7 7 7 7 7 8 8 8 8 8 9 9 9 9 9 9 10
22 21 20 20 20 21 21 22 22 23 23 22 22 22 21 20 20 20 20 21 21 21 20 21 22 21 19 20 22 22 22 21 20 20 20 19 19 19 18 17 16 14 13 12 11 10 10 9 9 8 8 8 7 7 7 7 7 7 7 7 7 7 7 7 7 7 7 6 6 6 6 6 6 6 6 7 7 7 7 7 7 7 7 8 8 8
21 20 20 21 21 21 21 21 22 21 21 20 20 21 21 21 21 22 22 25 27 27 25 24 23 20 18 20 21 20 19 18 17 17 16 16 16 15 15 15 14 14 13 13 12 11 11 10 10 10 9 9 9 8 8 7 7 6 6 6 6 6 6 6 6 6 6 6 6 6 6 6 6 6 6 7 7 7 7 7 7 7 7 7 7 7
23 23 24 24 25 25 26 27 27 26 25 25 25 26 26 26 26 25 25 26 28 30 29 26 22 18 18 21 20 19 18 17 17 16 15 15 16 16 16 16 16 15 15 15 14 13 12 12 11 10 9 9 8 8 8 7 7 7 6 6 6 6 6 6 6 6 6 6 6 6 6 6 6 6 6 6 7 7 7 7 7 7 7 7 7 7
29 31 32 32 32 32 32 32 33 32 29 27 26 26 25 24 23 22 21 20 21 23 25 23 19 16 18 19 17 16 16 15 15 15 15 16 17 18 18 18 18 18 17 16 15 14 13 12 11 10 9 8 8 7 7 7 7 6 6 6 6 6 6 6 6 6 6 6 6 6 6 6 6 6 7 7 7 7 7 7 7 7 7 7 7 7
37 37 38 39 38 37 36 37 38 36 33 30 27 25 23 21 20 19 18 17 17 17 18 18 16 14 16 16 15 15 15 15 16 16 17 19 20 21 21 21 21 20 19 18 16 15 14 13 12 11 10 9 8 7 7 6 6 6 6 6 6 6 6 6 6 6 6 6 6 6 6 6 6 6 6 7 7 7 7 7 7 7 7 7 7 7
41 41 41 41 42 41 40 41 41 39 38 37 34 29 25 23 21 20 20 19 17 17 19 21 20 17 17 19 19 19 19 20 21 21 22 23 24 24 24 23 22 21 20 19 18 17 16 15 14 12 11 10 8 7 7 6 6 6 6 6 6 6 6 6 6 6 6 6 6 6 6 6 7 7 7 7 7 7 7 7 7 7 7 7 8 8
41 43 44 43 44 45 44 45 45 44 43 42 41 39 36 33 26 21 19 17 17 19 23 29 29 22 22 26 25 24 25 25 26 25 25 26 25 25 24 23 23 22 22 21 20 19 18 17 16 14 13 12 10 9 8 7 7 6 6 6 6 6 6 6 6 6 6 6 7 7 7 7 7 7 7 7 7 7 7 8 7 8 8 8 8 8
43 44 47 48 48 48 48 49 49 49 47 44 45 46 48 47 41 32 25 20 18 18 21 30 33 27 25 29 28 26 27 27 27 27 27 28 27 27 26 26 25 25 24 23 22 21 20 18 18 17 17 15 13 11 10 8 8 7 7 7 6 7 7 7 7 7 7 7 7 8 8 8 8 8 8 8 8 8 7 8 8 7 8 8 8 8
45 45 47 48 50 50 51 51 52 52 52 50 49 52 55 57 55 49 42 33 25 21 19 25 31 28 26 29 28 27 28 29 29 30 31 31 30 29 29 28 28 27 25 24 23 22 21 21 21 20 18 16 14 12 10 9 8 8 7 7 7 7 7 7 7 7 8 8 8 9 8 9 8 8 8 8 8 8 8 8 7 7 7 7 7 7
48 49 48 48 50 52 53 55 56 56 56 55 54 55 58 61 62 59 55 48 38 28 23 24 26 24 25 27 27 28 29 29 30 31 32 32 31 30 30 29 29 28 27 26 25 25 24 23 22 19 17 15 13 12 10 9 8 8 8 8 8 8 8 8 8 9 9 10 10 10 9 9 9 9 9 8 8 8 7 7 7 7 7 6 6 6
49 51 53 52 51 53 56 57 58 59 59 59 58 56 57 61 65 65 62 59 52 39 29 27 27 23 24 26 26 27 28 27 28 29 31 31 30 30 31 30 30 30 29 29 28 27 26 23 21 19 17 16 14 12 10 9 8 8 8 8 8 8 8 9 9 10 10 11 10 11 10 10 10 9 9 8 8 8 7 7 6 6 6 6 5 5
51 52 57 59 57 56 58 60 61 62 62 62 61 58 57 59 64 67 66 65 65 55 39 33 32 27 25 26 25 25 26 26 26 28 29 29 29 29 30 30 30 30 30 29 28 26 24 23 21 20 18 16 14 12 10 9 9 8 8 8 8 9 9 9 10 11 11 11 11 11 10 10 9 9 8 8 7 7 6 6 6 6 5 5 5 5
53 53 55 60 61 59 60 63 64 64 64 63 62 60 57 57 60 65 65 65 69 68 53 40 37 32 27 26 25 25 25 25 25 27 28 28 27 28 29 29 30 30 29 28 26 25 25 24 22 21 19 17 15 13 12 10 9 8 8 8 8 9 9 10 10 11 11 11 11 10 10 9 8 8 7 7 6 6 6 6 5 5 5 5 5 5
56 56 54 57 60 58 57 60 62 62 62 62 62 61 59 56 58 63 65 64 67 72 66 53 44 38 31 28 27 27 27 26 26 29 31 30 29 30 31 30 30 30 30 29 28 28 27 26 24 21 20 18 16 14 13 11 9 9 8 8 8 9 10 10 11 11 11 11 11 10 9 8 8 7 6 6 6 6 6 6 6 6 6 5 6 5
59 61 58 57 60 61 58 58 61 61 62 63 63 63 61 58 58 61 65 65 65 71 75 68 56 46 38 32 31 32 32 30 31 34 36 35 34 35 34 33 33 32 32 32 32 32 30 27 24 23 21 20 18 16 13 11 10 9 8 8 9 9 10 11 11 11 11 11 10 9 8 8 7 7 6 6 6 6 6 6 6 6 6 5 5 5
62 65 65 61 62 66 64 62 64 65 63 63 64 65 64 61 58 60 65 66 65 68 74 75 69 60 50 41 34 35 36 35 35 39 40 38 37 36 36 34 34 35 36 37 36 33 31 28 26 25 24 22 19 17 14 12 10 9 9 9 10 10 11 11 11 11 11 10 10 9 8 7 7 7 7 7 7 6 6 6 6 5 5 5 5 5
65 68 71 70 67 68 69 66 67 69 67 65 65 66 68 66 60 60 65 67 66 67 70 74 76 73 66 56 43 36 37 36 37 41 41 38 37 36 36 37 38 40 40 39 37 34 31 29 28 27 26 23 21 18 16 14 12 10 10 10 10 11 11 12 12 11 11 10 9 8 7 7 7 7 7 7 6 6 6 5 5 5 5 4 4 4
68 70 75 76 72 71 73 70 68 71 71 69 68 67 71 72 66 60 64 69 68 67 68 71 75 78 78 75 62 46 38 35 36 41 42 40 39 38 38 40 41 41 40 38 36 34 32 31 30 29 27 25 23 21 19 16 13 11 10 10 11 11 12 12 12 11 11 10 9 8 8 7 7 7 7 7 6 6 5 5 5 5 4 4 4 4
69 71 75 78 76 73 74 73 69 71 73 72 71 70 72 77 75 64 63 70 71 69 69 70 72 78 82 86 82 67 50 37 34 39 42 41 42 41 40 40 40 40 39 37 36 36 35 33 31 30 29 27 25 24 21 18 14 11 10 10 11 12 12 12 12 11 11 10 9 8 8 8 7 7 7 6 6 5 5 5 5 5 4 4 4 4
70 73 75 78 80 77 75 75 71 70 74 74 73 74 74 79 83 72 63 69 74 71 72 72 73 76 79 84 92 90 73 50 35 37 41 42 43 43 41 39 38 37 37 38 38 37 36 34 33 32 31 30 27 26 23 20 15 12 11 11 11 12 12 12 12 11 10 10 9 8 8 8 8 7 6 6 5 5 5 5 5 5 5 4 4 4
73 75 74 76 81 80 76 77 75 71 74 77 77 78 77 79 87 83 68 68 76 75 74 76 75 74 75 78 87 98 94 71 45 37 39 41 42 43 41 39 38 37 37 37 38 37 37 36 34 33 33 31 28 26 24 21 17 13 11 11 11 12 12 12 12 11 10 10 9 8 8 8 7 7 6 6 5 5 5 5 5 5 5 5 4 4
76 76 73 73 78 81 78 80 83 79 78 82 81 81 80 80 88 92 78 71 78 80 78 78 77 75 75 75 79 91 100 89 61 44 40 40 41 42 41 39 38 38 38 38 37 37 36 36 35 34 34 32 28 27 25 23 19 15 12 11 11 12 13 13 12 12 11 10 9 8 8 8 7 6 6 6 5 5 5 5 5 5 5 4 4 4
77 77 76 75 78 82 80 81 87 86 82 83 82 82 83 82 89 99 93 78 79 85 82 81 81 77 75 76 76 81 96 99 80 59 46 40 39 41 41 40 39 38 38 38 38 37 36 35 34 34 34 32 29 27 27 25 21 17 13 11 11 12 13 13 12 12 11 9 9 8 8 7 6 6 6 6 5 5 5 5 5 5 5 4 4 4
78 79 79 78 78 79 78 76 80 84 83 83 82 81 82 82 85 98 101 90 85 89 87 83 84 82 78 78 77 77 89 101 94 75 57 43 38 40 41 42 41 39 38 38 37 36 35 34 33 33 34 33 30 28 27 25 23 19 15 12 11 12 13 13 12 12 10 9 8 8 8 7 6 6 6 6 6 5 5 5 5 5 5 4 4 4
80 80 80 80 78 78 76 74 75 79 81 81 80 79 80 80 79 87 96 94 91 93 92 87 86 86 82 81 80 78 84 95 97 87 72 53 42 41 43 42 41 39 37 37 36 36 35 34 33 33 33 33 30 29 27 26 24 21 16 12 11 12 12 12 12 12 10 9 8 8 7 6 6 6 6 6 6 5 5 5 5 4 4 4 4 4
83 84 83 82 81 79 77 74 72 74 75 75 75 76 77 77 76 78 85 88 90 93 94 91 90 89 86 85 85 82 81 87 92 91 83 65 47 40 42 41 40 39 37 36 36 35 35 34 33 32 33 32 30 29 28 26 25 22 18 13 11 12 12 12 12 12 10 9 8 8 7 6 6 6 6 6 6 6 6 5 5 5 5 4 4 4
84 85 86 85 82 80 79 79 77 75 75 75 76 76 76 76 75 76 77 81 84 88 91 91 91 91 90 88 87 84 82 84 87 88 86 74 52 40 40 40 38 37 36 35 35 34 33 33 32 31 32 31 29 28 28 26 25 23 20 15 11 11 12 13 13 12 10 9 8 7 7 6 6 6 6 6 6 6 6 5 5 5 5 4 4 4
87 85 87 89 86 82 81 83 84 82 79 78 78 77 77 77 78 78 76 75 77 81 84 86 87 91 92 90 88 87 86 84 83 82 83 77 58 41 38 39 37 36 35 34 34 33 32 32 31 30 31 31 29 28 28 27 26 25 22 17 12 11 12 13 13 12 11 9 8 8 7 6 6 6 6 6 6 6 6 6 5 5 5 4 4 4
93 87 86 90 91 87 84 83 85 88 86 80 79 80 80 80 81 82 81 77 74 76 80 82 84 88 91 90 91 92 90 86 84 82 81 79 64 44 37 38 37 34 33 33 32 32 31 30 29 29 30 31 29 28 28 28 26 26 24 19 14 12 12 13 13 12 11 9 8 7 6 6 6 6 6 6 6 6 6 5 5 5 5 5 4 4
96 94 90 91 93 90 87 84 82 86 88 84 82 84 85 84 85 86 84 81 77 77 80 82 84 87 91 94 98 96 91 90 90 85 82 80 68 47 36 36 36 33 32 31 31 31 31 30 29 28 30 31 29 28 28 28 27 27 26 21 15 12 12 13 13 12 11 9 9 8 6 6 6 6 7 7 6 6 6 6 6 5 5 5 5 5
96 97 93 92 94 93 92 91 86 85 89 91 90 88 88 89 90 89 87 84 81 79 81 84 85 87 91 97 101 98 93 94 95 89 83 82 70 50 37 36 35 33 31 30 30 30 31 30 29 28 29 30 30 28 28 28 27 27 26 23 17 12 12 13 13 12 11 9 9 8 6 6 6 6 7 7 7 7 6 6 6 5 6 5 5 5
92 94 92 93 97 99 100 102 98 92 94 98 97 94 95 95 93 92 91 88 85 83 83 84 86 87 90 96 101 100 96 96 97 92 86 84 75 54 38 35 35 33 31 30 29 30 31 31 29 27 28 30 29 28 28 27 27 27 26 24 18 13 12 13 13 12 11 10 9 8 6 6 6 6 7 6 7 7 6 6 6 6 6 6 5 5
89 90 92 93 98 104 106 106 105 101 98 99 99 100 102 102 97 95 94 90 86 84 84 85 88 89 90 94 99 100 97 96 98 96 92 90 81 59 40 35 36 34 31 30 29 30 31 31 30 27 27 29 29 28 27 27 27 27 26 24 20 14 12 13 14 13 11 10 9 8 7 6 6 6 6 6 6 7 6 6 6 6 6 6 5 5
88 89 94 94 94 100 105 105 107 106 101 98 99 100 103 103 99 95 95 91 87 86 86 87 88 89 89 92 97 100 98 97 101 102 98 95 86 63 41 36 36 34 32 31 30 30 31 31 30 27 27 28 28 28 27 26 26 26 26 25 21 15 12 13 14 13 12 10 9 8 7 6 6 6 6 6 6 7 7 7 6 6 6 6 6 5
88 90 97 98 93 95 100 103 105 107 104 100 101 102 104 106 102 98 98 95 90 89 89 89 89 87 86 89 94 98 100 100 104 105 101 99 90 66 43 36 37 35 33 32 30 31 32 32 31 28 26 27 28 28 27 26 25 26 26 26 22 16 13 13 14 13 12 10 10 8 7 6 6 6 6 6 6 6 6 7 7 6 6 7 6 6
91 90 94 98 97 96 99 100 102 107 106 103 103 103 105 107 105 101 100 98 93 91 92 90 88 86 85 88 92 98 102 103 104 105 103 101 92 69 44 37 37 35 33 32 31 31 32 33 32 28 26 27 28 27 27 26 25 25 26 26 23 16 13 13 14 13 12 11 10 9 7 7 7 6 6 6 6 6 6 6 7 7 6 7 7 7
91 89 89 94 97 98 100 100 98 101 104 104 104 105 106 107 105 102 102 100 94 91 92 91 88 85 86 89 92 96 100 102 103 106 106 104 94 70 46 37 37 35 33 33 32 32 33 33 31 28 26 26 27 27 27 26 25 25 26 26 23 17 13 13 14 13 12 11 10 9 7 7 7 7 6 6 6 5 5 6 7 7 7 6 7 7
89 88 87 90 94 99 102 101 96 94 97 101 104 106 107 107 104 102 103 102 97 93 92 90 86 84 86 89 91 94 98 102 106 107 107 106 96 70 45 37 37 35 33 32 32 32 32 33 31 27 25 26 27 27 27 26 25 25 26 26 24 18 14 14 14 14 13 11 10 9 8 7 7 7 6 6 6 6 5 5 6 7 7 7 7 7
87 86 85 88 95 100 102 101 97 93 95 100 104 106 106 105 104 103 103 101 98 96 92 87 83 83 87 89 90 94 99 104 108 108 107 107 97 70 44 37 37 34 32 32 32 32 32 32 30 27 25 26 27 27 27 27 26 25 26 26 24 18 14 14 14 14 13 11 10 9 8 7 7 7 7 7 6 6 6 5 5 6 6 7 7 7
Wind_Speed
72 73 74 75 76 77 78 79 81 82 83 85 86 87 88 89 90 91 92 93 93 93 94 94 95 95 96 98 99 100 102 103 105 107 109 110 111 111 112 114 115 116 117 118 119 119 120 121 122 122 123 124 124 125 125 126 127 127 128 128 129 129 129 130 130 131 131 131 131 131 131 131 130 130 130 130 130 130 129 128 127 127 126 125 125 124
73 74 75 76 76 77 78 79 80 81 82 84 85 86 87 89 89 90 92 93 93 93 94 94 94 95 96 97 98 99 100 102 104 105 107 107 108 109 111 112 113 114 115 116 117 118 119 120 121 122 122 123 124 125 125 126 127 127 128 128 129 129 130 130 130 131 131 132 132 132 132 132 132 132 132 132 132 132 131 131 130 129 129 128 127 126
70 71 72 73 74 75 75 76 78 79 80 81 82 83 85 86 87 88 89 91 92 92 93 93 94 95 96 97 98 99 100 101 103 104 105 106 107 108 110 111 112 113 114 115 116 117 118 119 120 121 122 123 124 125 126 126 127 128 128 129 129 130 130 131 131 131 132 132 132 132 133 133 133 132 132 132 132 132 132 132 131 131 130 130 129 128
66 67 68 69 70 71 72 73 74 76 77 78 79 80 82 83 84 85 86 87 89 90 90 90 92 93 95 95 96 97 98 100 101 102 103 104 105 107 108 109 110 111 112 113 114 115 116 117 118 119 120 121 122 123 124 124 125 126 126 127 128 128 129 129 129 130 130 130 130 131 131 131 131 131 131 131 131 131 131 131 131 130 130 130 129 128
61 62 63 64 65 67 68 69 70 71 72 74 75 77 78 79 80 82 83 84 85 86 87 87 88 90 91 91 92 93 95 96 97 98 100 101 102 103 104 106 107 108 109 109 111 112 113 114 114 116 117 117 118 119 120 121 122 123 123 124 125 125 126 126 127 127 128 128 128 129 129 129 130 130 130 130 130 130 130 130 130 130 129 129 129 128
57 58 59 60 62 63 65 66 67 68 70 71 73 74 75 77 78 79 80 81 82 83 84 85 86 87 89 90 90 92 93 94 96 97 98 99 101 102 103 104 106 107 108 109 110 111 112 113 114 115 115 116 118 119 120 121 122 122 123 124 124 125 126 126 127 127 128 129 129 129 130 130 130 130 130 131 131 130 130 130 130 130 130 130 129 129
55 56 57 59 60 62 63 65 66 67 68 70 72 73 74 76 77 78 79 80 81 82 83 85 85 87 88 89 91 92 93 94 95 96 98 99 100 101 103 104 105 106 107 108 109 110 111 112 113 114 114 115 116 117 119 120 121 122 123 123 124 125 126 126 127 128 129 129 130 131 131 131 132 132 132 133 133 132 132 132 132 132 132 132 131 130
53 54 56 57 58 59 61 62 64 65 66 67 69 70 71 73 74 75 76 77 78 79 80 82 83 84 85 87 88 90 91 91 92 93 94 96 97 98 99 100 101 102 103 104 105 106 107 108 109 110 111 112 113 114 115 116 117 118 119 120 120 121 123 124 125 126 127 127 129 129 130 131 132 132 133 133 134 134 134 134 134 134 134 134 134 133
51 52 53 54 56 57 58 59 61 62 63 64 65 66 67 68 70 71 72 73 73 75 76 77 78 79 81 82 84 85 86 87 88 89 90 91 92 93 94 95 96 97 98 98 99 100 101 102 103 104 105 107 108 109 110 111 112 113 114 115 116 117 118 119 120 121 123 124 125 126 127 128 129 130 130 131 132 133 133 133 133 133 134 134 134 134
49 50 51 52 53 54 55 56 57 58 59 60 61 62 63 64 65 66 67 68 69 70 71 72 73 74 75 77 79 80 81 82 83 84 85 86 87 88 89 90 90 91 92 93 94 94 95 96 97 98 100 101 103 104 106 107 108 109 110 111 111 112 113 115 116 117 118 119 120 121 123 124 125 126 127 128 129 130 130 131 131 131 132 132 133 133
47 48 49 50 50 51 52 52 53 54 55 56 57 57 58 59 60 62 63 64 65 65 66 67 68 69 69 71 72 74 75 76 77 79 80 81 82 82 83 84 85 86 87 87 88 89 90 90 91 92 94 95 97 99 101 103 104 106 106 107 108 109 110 111 112 113 114 115 116 117 118 119 121 122 123 124 125 126 127 128 128 129 129 130 130 131
45 45 46 46 46 47 47 48 49 49 50 51 52 53 54 54 55 56 58 59 60 61 61 62 64 65 65 66 68 69 71 72 73 74 75 75 76 78 78 79 80 81 82 82 83 83 84 84 85 86 87 88 90 91 93 95 97 99 101 103 104 106 107 109 109 110 111 112 113 114 115 116 117 118 119 120 121 122 123 124 125 126 126 127 128 128
42 42 42 42 42 42 42 43 44 44 45 46 47 49 50 51 52 53 54 56 59 60 60 61 62 63 63 64 65 67 68 68 69 70 71 71 73 74 75 76 78 79 79 80 81 81 82 82 83 84 85 85 86 87 88 89 90 92 93 95 97 99 101 103 105 107 108 109 110 111 112 112 113 114 115 116 117 118 119 121 121 122 123 124 125 125
39 39 39 39 39 40 40 41 42 42 43 44 46 47 49 50 51 52 53 55 57 60 61 61 61 61 62 63 64 65 66 66 67 68 68 69 71 72 73 74 76 77 78 79 80 80 81 81 82 83 83 84 85 85 86 87 88 88 89 90 91 93 94 96 98 100 102 104 105 107 108 109 110 111 111 113 114 115 116 117 118 119 119 120 121 122
38 38 39 39 39 40 40 41 42 42 42 42 43 44 45 47 48 49 50 51 53 56 59 61 61 60 61 63 63 64 66 66 66 67 67 66 67 69 69 70 72 73 75 76 77 78 79 79 80 80 80 81 81 82 83 84 85 86 86 87 88 88 90 91 92 93 95 97 99 100 102 103 105 106 107 109 110 111 112 113 114 115 116 117 118 119
39 39 39 39 39 39 39 40 40 41 41 41 41 42 43 44 45 47 48 49 50 52 56 59 60 60 60 61 62 63 63 63 63 64 63 62 63 64 65 67 69 70 72 73 75 76 77 78 78 79 79 80 80 80 80 81 81 82 83 83 84 85 86 87 88 89 90 91 92 93 95 97 98 100 102 103 105 106 107 108 110 111 112 113 114 115
39 39 39 39 40 39 39 40 40 40 41 42 42 41 42 42 43 44 46 47 48 49 51 54 57 57 56 56 58 58 58 58 58 59 59 58 59 61 63 65 67 69 70 72 73 74 75 76 77 78 79 79 80 80 80 80 79 79 80 80 81 82 83 84 85 86 86 87 88 89 90 91 93 94 96 97 99 101 102 103 105 106 108 109 110 111
39 39 40 41 42 42 43 43 43 43 43 44 45 44 43 43 43 43 43 45 46 46 47 49 53 53 51 51 53 54 54 53 54 55 55 56 58 60 62 64 66 67 69 70 71 72 73 74 75 76 77 77 78 78 79 79 79 79 79 79 80 80 80 81 82 82 83 84 85 86 87 88 89 90 92 93 94 96 97 98 100 101 103 104 106 107
39 41 42 43 45 46 47 48 48 48 47 47 48 48 47 46 45 43 43 44 44 43 42 44 50 52 48 48 50 50 51 51 51 53 54 55 57 59 61 63 64 65 66 67 68 69 70 71 72 73 74 75 76 77 78 78 78 78 78 78 79 79 80 80 81 81 82 82 83 83 84 86 87 88 89 91 92 93 94 96 97 98 99 101 102 103
41 42 44 45 47 48 49 51 52 52 52 52 52 53 53 52 50 49 48 48 46 44 41 41 48 51 47 46 48 48 49 49 50 52 53 55 56 57 59 61 62 63 64 65 65 66 67 68 69 70 71 72 73 74 74 75 75 75 75 75 75 76 77 78 78 79 80 80 81 82 83 84 86 87 88 89 90 92 93 95 96 97 98 100 101 102
44 45 45 46 47 48 49 51 53 54 55 55 56 57 57 57 56 55 54 54 51 48 45 42 46 50 47 47 49 49 49 49 50 51 53 54 56 57 58 60 61 62 63 64 64 65 66 67 68 68 69 70 70 70 71 71 71 71 71 72 72 73 73 74 74 75 76 77 78 79 81 82 84 85 87 88 89 90 92 93 95 96 97 99 100 101
45 46 47 48 49 50 51 53 54 56 57 58 58 58 59 59 59 59 58 58 56 54 50 48 48 50 49 49 50 50 51 51 51 52 53 54 56 57 58 60 61 62 64 64 65 65 66 67 68 69 69 70 70 69 69 69 69 69 69 70 70 71 71 72 72 72 73 75 76 78 79 81 82 84 85 87 88 89 90 92 93 94 95 96 98 99
46 48 49 50 51 51 52 54 55 57 58 59 60 60 60 60 61 61 61 61 60 58 55 53 53 53 51 51 52 52 52 53 52 53 55 56 57 58 59 61 62 63 64 65 65 66 66 67 69 70 70 71 71 71 71 70 69 69 69 69 69 70 70 70 71 71 72 74 76 78 79 81 82 84 85 86 87 88 89 90 91 92 92 93 94 96
47 47 49 51 53 54 55 56 57 58 59 60 61 62 62 62 63 64 64 64 64 63 60 57 58 57 55 53 54 54 54 55 55 56 57 58 59 60 61 62 63 64 65 66 66 66 67 68 69 70 71 72 72 72 72 71 70 70 69 69 69 69 69 69 69 70 72 74 76 78 80 81 82 83 84 85 85 86 86 87 88 88 89 90 91 92
46 47 47 49 51 53 54 55 56 57 59 60 61 63 63 63 64 65 67 67 67 67 65 61 60 61 60 57 57 56 56 57 57 57 59 60 61 61 62 63 63 64 65 65 66 66 67 68 69 70 71 71 72 72 72 71 70 70 69 69 68 68 68 68 69 70 72 73 76 78 79 81 82 82 83 83 83 84 84 84 84 85 85 86 87 88
47 48 48 48 50 51 52 53 55 56 58 60 62 63 64 65 65 66 67 68 68 70 70 66 63 63 64 62 61 61 60 60 60 60 61 62 63 63 63 63 63 64 65 65 66 67 67 68 69 69 70 71 71 71 71 70 70 69 69 68 68 68 68 68 69 70 72 74 75 77 79 80 80 81 81 81 81 81 82 82 82 82 83 83 84 84
47 49 50 50 51 53 54 55 56 58 59 60 62 63 65 66 67 67 68 69 70 71 72 72 69 66 66 66 65 65 65 64 64 64 64 65 65 65 65 65 64 65 65 66 67 67 68 68 69 69 70 71 71 71 70 70 69 69 69 68 68 68 68 68 69 70 72 73 75 76 77 78 78 79 79 79 79 79 79 79 80 80 80 80 81 81
48 49 51 52 53 54 56 57 58 60 61 62 63 64 66 67 68 68 69 70 71 72 73 74 74 71 70 69 69 68 67 67 66 66 66 67 67 67 67 66 66 66 67 67 67 68 68 69 69 70 71 71 72 71 71 70 70 69 69 68 68 68 68 68 69 70 72 73 74 75 76 76 76 76 76 76 77 77 77 77 77 77 78 78 78 78
49 50 52 54 54 54 56 58 60 61 63 64 64 65 67 68 69 70 70 72 73 73 74 75 76 76 74 73 72 71 70 69 67 67 67 68 68 68 68 68 68 67 67 67 67 68 69 70 71 71 72 73 73 73 72 71 71 70 69 68 67 67 67 68 69 70 72 73 73 74 74 74 74 74 74 74 75 75 75 75 75 75 76 76 76 76
49 50 52 53 54 55 57 59 60 62 63 65 66 66 67 69 71 71 71 72 74 75 75 76 77 79 79 78 77 75 73 71 69 68 69 69 70 70 70 70 69 68 67 67 68 69 70 71 72 72 73 74 74 74 74 73 72 70 69 68 67 67 67 68 69 70 71 72 72 73 73 73 73 73 73 73 73 73 73 73 73 74 74 74 75 74
49 50 51 53 54 55 57 59 60 62 63 65 67 67 68 70 72 73 72 73 75 76 77 78 78 79 80 81 81 79 77 75 72 70 71 71 71 71 71 70 70 69 69 69 69 70 71 72 73 74 75 76 76 75 75 74 73 71 70 69 68 67 67 68 69 70 71 72 71 72 72 72 72 72 72 72 72 72 72 72 72 72 72 72 72 72
49 50 51 52 54 55 57 59 61 61 63 65 66 68 69 70 72 74 74 74 75 77 78 79 80 80 80 82 83 83 82 79 75 73 73 73 72 72 72 71 71 71 71 71 71 72 72 73 74 75 75 76 77 76 76 75 74 72 71 70 69 68 68 68 69 70 71 71 71 71 71 71 71 71 71 71 70 70 70 70 70 70 70 70 70 70
49 50 50 51 54 56 58 60 61 62 63 65 67 68 69 70 72 75 76 75 76 78 79 80 81 82 82 82 84 86 86 84 80 77 76 75 74 74 73 73 73 73 73 73 73 73 73 74 74 75 76 77 77 77 77 76 75 74 72 71 70 69 69 69 70 71 71 71 71 70 70 70 70 70 70 69 69 69 69 69 69 69 68 68 68 68
50 50 51 52 54 56 59 60 62 64 64 65 67 68 70 71 73 76 78 77 77 78 80 81 82 83 83 84 84 86 89 89 86 82 80 79 77 76 75 75 75 75 74 74 74 74 74 74 75 75 76 77 78 78 77 77 76 75 74 73 72 71 70 70 71 72 72 72 71 70 70 70 69 69 68 68 68 67 67 67 67 67 66 66 66 66
51 52 53 53 55 57 59 60 62 64 66 66 68 69 70 72 73 75 78 79 78 79 80 81 82 84 84 85 85 87 89 92 90 87 85 83 80 79 78 78 77 77 76 76 75 75 75 75 75 76 77 78 78 78 78 78 77 76 75 74 73 72 71 71 72 72 73 72 71 70 70 69 69 68 67 67 67 66 66 66 65 65 64 64 64 63
51 53 54 55 56 57 59 60 62 64 67 68 70 70 71 72 72 74 77 80 79 79 80 81 83 85 86 87 87 87 89 92 93 92 89 87 84 83 82 80 79 78 77 77 76 76 76 76 76 76 77 78 79 79 79 79 78 77 76 75 74 73 72 72 72 73 73 73 71 70 69 69 68 68 67 66 66 65 65 65 64 63 63 63 62 61
52 53 55 56 57 58 60 61 63 64 66 68 70 71 72 73 73 74 76 79 79 79 80 81 83 85 86 88 88 88 89 91 93 94 92 91 88 86 84 82 80 79 78 77 77 77 76 76 76 76 77 78 79 80 80 79 79 78 77 76 75 74 73 72 73 73 74 73 72 70 69 69 68 67 67 66 65 65 64 64 63 63 63 63 62 60
53 55 57 58 60 61 62 63 64 65 67 69 71 73 74 75 75 76 76 78 79 80 81 81 82 84 86 88 89 89 89 90 92 94 94 92 90 87 84 82 81 80 79 78 78 77 77 77 76 76 77 78 79 80 80 80 80 79 78 77 76 74 73 73 73 74 74 73 72 70 69 68 68 67 67 66 65 64 64 64 63 63 63 62 61 60
55 57 59 61 62 63 65 68 69 69 70 72 74 75 77 78 79 79 79 79 80 80 80 81 82 83 85 87 89 90 90 90 92 93 94 93 91 88 86 84 82 81 80 79 79 78 78 77 77 76 77 78 79 80 81 81 81 80 80 78 77 76 74 74 74 74 75 74 72 70 69 68 67 67 67 66 65 64 63 63 63 63 62 61 60 59
58 59 61 63 65 66 67 69 72 74 74 75 77 78 79 81 83 83 83 82 81 81 82 82 83 83 85 87 90 92 93 93 93 94 95 95 93 91 88 86 84 83 81 80 80 79 79 78 78 77 78 79 80 80 81 81 81 81 81 80 79 77 76 75 75 75 75 74 72 71 70 68 67 67 66 66 64 63 62 62 63 63 62 61 59 58
60 61 62 65 67 68 69 70 72 75 77 78 79 81 83 84 86 87 88 87 86 85 84 84 84 85 86 88 90 93 95 96 96 97 97 97 96 93 90 88 87 85 84 82 81 81 80 80 79 79 79 79 80 80 81 82 82 82 82 81 80 78 77 76 75 75 75 74 73 71 70 68 67 67 66 65 64 63 62 62 62 62 62 61 59 58
61 64 65 67 70 71 72 73 73 75 78 81 82 84 86 88 89 90 91 92 90 89 88 87 87 87 87 89 91 94 96 98 99 99 100 100 98 96 93 91 89 88 86 85 83 83 82 81 81 80 80 80 81 81 81 82 82 82 82 82 81 79 78 77 76 76 76 75 73 72 70 68 67 66 65 64 63 63 63 62 61 61 61 60 59 58
63 66 68 70 73 75 77 78 78 78 81 84 86 87 89 90 92 93 94 94 94 93 91 90 89 89 89 90 92 95 97 99 100 101 102 102 101 99 96 94 93 91 89 87 86 84 84 83 82 81 81 81 81 81 82 82 82 82 82 82 81 80 78 77 77 77 76 75 74 72 70 68 67 66 65 63 62 62 62 62 60 60 60 59 59 58
65 68 71 73 76 79 81 84 85 84 84 86 88 90 92 93 94 96 96 97 96 95 93 92 91 91 91 91 93 95 97 99 101 103 104 105 104 102 99 97 95 94 92 90 88 86 85 84 84 82 81 81 82 82 82 82 82 82 82 82 82 80 79 78 77 77 77 75 74 72 71 68 67 66 64 62 61 61 61 61 60 59 59 58 58 58
67 70 73 75 78 81 83 85 86 87 86 87 88 90 93 95 97 98 98 98 98 97 96 94 92 92 91 91 93 95 98 100 102 104 106 107 107 105 102 100 98 96 94 92 89 87 86 85 85 83 82 82 82 82 82 82 82 82 82 82 82 81 79 78 78 78 77 76 74 73 71 69 67 66 64 61 60 59 60 60 60 58 58 58 57 57
68 70 74 75 76 78 81 84 86 88 88 88 89 91 93 96 98 99 100 101 100 99 98 96 94 93 92 92 93 95 98 101 103 105 107 108 109 107 104 102 100 98 97 94 91 89 87 86 86 84 83 83 83 82 82 82 81 82 82 82 82 81 80 79 78 78 78 76 75 73 72 70 68 66 64 61 59 58 58 58 59 58 57 57 57 57
68 70 74 76 77 78 80 82 85 88 89 89 90 92 94 97 100 101 103 103 102 101 100 97 95 94 93 93 94 96 99 102 104 106 108 110 110 109 106 104 102 101 98 96 92 90 88 87 86 85 84 83 83 83 82 82 81 81 81 82 82 81 80 79 78 78 78 77 76 74 72 71 69 68 65 62 60 57 56 56 56 56 56 56 57 57
70 71 73 76 78 80 80 82 84 87 90 91 92 93 95 98 101 103 104 104 104 102 101 99 96 95 94 94 95 97 100 102 105 107 109 111 112 111 108 105 104 102 100 97 93 91 89 88 87 86 85 84 83 83 82 82 81 81 81 81 82 81 80 79 78 78 78 78 76 75 73 71 70 68 66 64 61 58 55 55 55 55 54 53 55 56
72 73 73 75 78 80 81 82 83 85 88 91 93 94 96 98 101 103 105 105 104 103 101 99 97 96 95 95 96 97 100 103 105 107 110 112 113 112 110 107 105 103 101 97 94 91 89 89 88 87 85 84 83 83 83 82 81 81 81 81 81 81 80 79 79 78 78 77 76 75 74 72 70 68 67 65 63 60 56 53 53 54 54 52 51 53
74 75 75 76 78 80 82 85 86 86 87 90 93 95 97 99 102 104 105 106 105 104 102 100 97 96 96 96 97 98 100 103 106 108 110 113 114 113 110 107 105 104 101 98 94 92 90 89 88 87 86 84 83 83 82 82 81 81 81 81 81 81 80 79 79 79 78 77 76 75 74 72 70 69 67 65 64 62 59 54 51 50 53 53 51 50
76 77 77 78 80 82 84 87 89 90 90 92 94 96 98 101 103 105 106 106 105 104 102 100 98 96 96 97 98 99 101 104 106 109 111 113 114 113 110 108 106 104 101 98 95 92 90 90 89 88 86 84 83 82 82 82 81 81 81 81 81 80 79 79 79 79 78 78 76 75 74 73 71 69 68 66 64 63 61 59 54 49 48 49 51 50
Wind_Direction
281 280 280 280 279 279 279 278 278 278 278 278 278 277 277 277 277 277 277 277 276 276 275 275 275 275 274 274 274 273 273 273 273 273 274 274 274 274 274 275 275 275 275 275 275 275 275 275 275 275 275 275 275 275 275 274 274 274 274 274 274 274 274 274 274 274 274 274 274 274 274 273 273 273 273 273 273 272 272 271 271 270 269 269 268 268
282 281 281 281 281 280 280 279 279 278 278 278 278 277 277 277 277 277 277 277 277 277 277 277 277 276 276 276 275 275 274 274 274 274 274 274 274 274 274 274 274 274 274 274 274 274 274 274 275 275 275 275 275 275 275 275 275 275 275 275 275 274 274 274 274 274 274 274 274 274 274 274 274 273 273 273 273 273 273 272 272 271 271 270 270 269
283 282 282 282 282 281 281 281 280 280 279 279 279 278 278 278 277 277 277 277 277 277 277 277 277 277 277 276 276 276 276 275 275 275 275 275 275 274 274 274 274 274 274 274 274 274 274 274 274 274 274 274 274 274 274 274 274 274 274 274 274 274 274 274 274 274 274 274 274 274 274 274 273 273 273 273 273 273 273 273 272 272 272 271 271 270
285 284 284 283 283 283 282 282 281 281 281 280 280 280 279 279 279 279 278 278 278 278 278 278 278 277 277 277 277 276 276 276 276 276 276 275 275 275 275 275 275 274 274 274 274 274 274 274 274 274 274 274 274 274 274 274 274 274 274 274 274 274 274 273 273 273 273 273 273 273 273 273 273 273 273 273 272 272 272 272 272 272 272 271 271 271
286 285 285 285 284 284 283 283 282 282 281 281 281 280 280 280 279 279 279 279 279 279 279 279 278 278 278 278 277 277 277 277 276 276 276 276 276 276 276 276 276 276 275 275 275 275 275 275 274 274 274 274 274 274 274 274 274 274 274 274 274 274 274 273 273 273 273 273 273 273 273 273 273 273 273 272 272 272 272 272 272 271 271 271 271 270
289 288 288 287 287 286 286 285 284 284 283 282 282 281 281 280 280 280 279 279 279 279 279 279 278 278 278 278 278 277 277 277 277 277 277 277 277 277 277 277 277 277 276 276 276 276 276 276 275 275 275 275 275 275 275 274 274 274 274 274 273 273 273 273 273 273 273 273 273 273 273 273 272 272 272 272 272 272 272 271 271 271 271 271 270 270
292 291 290 289 289 288 287 286 286 285 284 283 283 282 282 281 281 281 280 280 280 279 279 279 279 278 279 278 278 278 277 277 277 277 277 277 277 277 277 277 277 277 277 277 277 277 277 277 276 276 276 276 275 275 274 274 274 274 274 274 273 273 273 273 273 272 272 272 272 272 272 272 272 272 272 272 272 271 271 271 271 271 271 271 270 270
294 294 293 292 291 290 289 288 287 287 286 285 285 284 284 283 283 282 282 282 281 281 281 280 280 280 280 280 280 280 279 279 279 279 279 279 279 279 279 279 279 279 278 278 278 278 278 278 278 277 277 277 277 276 276 275 275 274 274 274 274 273 273 273 273 273 272 272 272 272 272 271 271 271 271 271 271 271 271 271 270 270 270 270 270 270
298 297 296 295 293 292 292 291 290 289 288 288 287 287 286 286 285 285 284 284 284 283 283 283 282 282 282 282 282 282 282 282 282 282 282 281 281 281 281 281 281 280 280 280 280 279 279 279 278 278 278 278 277 277 277 276 276 276 275 275 274 274 274 273 273 273 273 272 272 272 272 272 271 271 271 271 271 271 271 271 270 270 270 270 270 269
301 300 299 297 296 295 294 293 292 291 291 290 289 289 288 288 288 287 287 286 286 285 285 285 284 284 283 283 283 283 283 283 283 283 284 284 284 283 283 283 283 283 282 282 282 281 281 280 280 279 279 278 278 278 278 277 277 276 276 276 275 275 275 274 274 274 273 273 273 272 272 272 272 272 271 271 271 271 271 271 271 271 270 270 270 270
304 303 302 301 300 299 298 297 296 295 295 294 293 292 291 290 290 289 288 288 287 286 285 284 284 283 283 283 284 284 284 285 285 285 286 286 286 286 286 286 285 285 284 284 283 282 282 281 281 280 279 278 278 278 278 278 277 277 277 277 277 276 276 275 275 274 274 274 273 273 273 272 272 272 272 272 272 272 271 271 271 271 271 271 271 270
306 305 305 304 304 303 303 302 301 300 299 298 297 295 294 293 292 291 291 290 290 289 288 288 288 287 287 288 289 289 288 288 288 289 289 289 289 289 289 289 289 288 288 287 287 286 285 285 284 283 282 281 280 279 278 277 277 277 277 277 277 277 276 276 276 275 275 275 274 274 273 273 273 272 272 272 272 272 271 271 271 271 271 271 271 271
313 312 312 311 310 309 308 307 307 306 306 305 304 304 303 303 302 301 301 301 300 299 297 296 295 295 295 294 293 292 292 292 292 292 292 292 293 293 293 293 292 292 292 292 291 291 291 290 290 289 288 287 286 284 283 282 280 279 278 277 277 276 276 276 276 276 276 275 275 275 274 274 274 273 273 273 272 272 272 272 271 271 271 270 270 270
323 323 322 322 322 321 320 320 319 318 318 317 316 315 314 313 311 309 308 307 305 302 301 299 298 299 298 297 296 296 296 296 296 296 296 296 296 295 295 295 294 294 294 294 293 293 293 292 291 291 290 289 289 288 287 286 285 284 282 281 280 279 278 277 276 276 276 275 275 275 275 275 274 274 274 273 273 272 272 272 272 271 271 271 270 270
335 335 335 336 336 335 334 333 331 330 329 326 324 321 319 316 313 311 309 306 304 302 301 301 302 302 302 301 301 301 300 300 300 299 299 299 298 297 297 296 296 295 295 295 295 294 294 293 293 292 291 290 290 289 288 287 287 286 285 284 283 282 281 280 279 278 277 276 275 275 275 275 274 274 274 274 273 273 273 272 272 272 272 271 271 271
347 348 348 348 347 346 345 344 343 341 337 333 331 328 325 321 317 314 312 310 307 306 305 305 305 306 305 304 304 303 303 303 303 303 303 302 301 300 299 299 298 298 297 297 297 297 297 297 297 296 296 295 294 293 292 290 289 288 288 287 286 285 284 283 282 280 279 278 277 276 276 275 274 274 273 273 273 273 272 272 272 272 272 271 271 271
357 357 358 357 356 355 354 354 354 353 348 343 341 338 334 329 326 323 320 316 314 312 311 309 308 307 308 308 307 306 306 307 307 306 306 306 304 303 302 302 301 301 301 301 301 301 301 301 301 300 300 299 298 297 296 295 293 292 291 289 288 287 286 285 284 283 282 281 280 279 278 277 276 275 274 274 273 273 272 272 272 272 271 271 271 271
3 2 2 2 2 1 1 1 2 1 359 354 352 349 345 341 336 331 326 321 319 319 318 316 311 310 313 314 311 311 312 312 311 310 310 309 308 307 306 305 305 304 304 304 304 304 303 303 302 302 301 301 300 300 299 299 298 296 295 294 292 290 289 287 286 285 284 283 282 281 280 279 279 278 277 276 275 275 274 273 273 272 271 271 271 270
5 6 6 5 5 5 5 5 5 5 4 2 360 358 356 352 346 340 334 329 328 327 327 323 316 315 321 319 316 316 316 316 315 314 314 313 311 310 309 308 307 307 306 306 305 305 304 304 304 304 304 304 303 302 301 300 299 298 297 295 294 293 292 291 289 288 287 286 285 284 283 282 281 280 280 279 278 277 277 276 275 274 274 273 272 271
6 7 8 8 7 7 6 6 6 6 6 5 4 3 2 359 355 349 344 340 339 336 334 329 321 321 325 323 319 320 320 319 319 318 318 316 314 313 312 311 310 309 308 308 307 307 306 306 306 306 306 305 304 302 301 300 299 298 296 295 294 293 292 291 290 290 289 288 287 286 286 284 283 283 282 281 280 279 279 278 277 276 276 275 274 273
6 6 7 8 8 7 7 6 6 6 7 6 6 6 5 3 360 356 352 349 347 344 341 336 327 325 328 325 323 323 323 323 323 322 321 319 317 316 315 314 313 312 311 311 310 310 310 309 308 307 306 305 304 303 302 301 300 299 298 297 296 294 293 292 291 290 289 288 287 286 286 285 284 283 283 282 281 280 280 279 278 277 277 276 275 275
6 5 5 7 7 7 7 7 6 6 6 6 7 7 7 5 3 0 358 354 351 349 347 341 333 331 332 329 326 326 325 325 324 323 322 321 319 319 318 316 316 315 314 314 314 313 312 311 310 309 308 307 307 306 306 305 304 303 302 301 299 298 296 295 294 293 292 291 289 288 288 287 286 285 284 284 283 282 281 280 279 278 277 277 276 275
5 5 4 4 6 6 6 6 6 5 5 5 5 6 6 6 5 3 1 359 355 352 350 346 339 336 336 333 330 329 327 326 326 325 324 323 322 322 321 320 319 318 317 317 316 315 314 313 312 312 312 312 311 311 311 310 309 308 306 304 302 301 299 298 297 296 295 294 293 292 291 290 289 288 287 286 285 284 282 281 281 280 279 278 277 276
4 5 4 3 3 4 5 5 4 4 4 3 3 4 5 6 5 4 3 2 359 356 354 351 344 341 340 336 333 331 330 328 328 327 326 324 324 324 323 323 322 320 319 318 317 317 316 316 316 315 315 314 314 314 314 313 312 311 309 307 305 303 302 301 299 298 297 296 295 294 293 293 292 291 289 288 287 286 284 283 282 281 280 279 278 278
1 2 4 3 2 2 3 3 2 2 2 2 2 2 3 4 5 4 3 3 2 358 356 356 351 345 342 340 337 335 333 332 331 330 328 327 326 326 325 324 323 321 320 319 319 319 319 319 318 317 317 316 316 316 316 316 314 312 310 309 307 306 304 303 301 300 299 298 297 297 296 295 294 293 292 291 289 288 287 285 284 283 282 281 280 279
358 358 360 1 1 0 2 2 1 1 1 0 0 0 1 2 4 4 2 2 2 1 358 358 356 350 346 343 342 340 338 337 336 335 332 330 329 328 327 325 324 323 322 322 322 322 321 320 319 319 318 318 318 318 318 317 316 314 312 311 309 308 306 305 304 303 302 301 300 299 298 297 296 295 294 293 291 290 289 288 286 285 284 283 282 280
356 355 356 358 359 358 358 360 359 359 359 359 359 359 359 0 2 3 2 1 2 2 0 359 358 356 351 347 345 344 342 341 341 339 337 335 333 332 330 329 327 327 326 326 325 324 323 322 321 321 321 321 321 320 320 319 318 317 315 313 312 310 308 307 306 305 304 303 302 301 300 299 298 297 296 294 293 292 291 290 288 287 286 285 283 282
354 353 352 354 356 356 356 357 357 357 357 358 357 358 357 358 360 1 1 0 1 2 1 360 359 358 356 352 349 347 346 344 344 342 340 338 336 335 333 332 332 331 330 329 327 326 325 325 325 325 324 323 323 323 323 322 321 319 318 316 314 312 310 309 308 307 306 305 304 303 302 301 300 299 297 296 295 294 293 291 290 289 288 287 286 284
352 351 350 350 352 353 353 354 355 355 355 356 356 356 356 356 358 360 0 359 359 360 1 0 360 359 359 356 353 350 348 347 346 344 341 340 339 338 337 336 335 334 332 330 328 328 328 328 328 327 326 325 325 325 325 325 323 322 320 318 316 314 312 311 310 309 309 308 307 306 304 303 302 300 299 298 297 296 295 294 292 291 290 289 288 287
350 350 349 348 349 351 351 352 353 353 353 354 354 354 355 354 354 358 359 358 358 358 359 360 360 360 360 359 356 353 350 349 348 346 343 342 341 341 340 339 337 335 333 332 331 331 331 330 330 329 328 327 328 328 328 327 325 323 322 320 318 316 315 314 313 312 311 310 309 308 306 305 304 303 302 300 299 298 297 295 294 293 292 290 289 288
348 348 349 347 348 349 350 350 351 352 352 352 352 353 353 353 352 354 357 357 356 357 358 358 359 359 360 359 358 355 353 351 350 348 345 344 343 343 342 341 339 337 335 334 334 334 333 332 332 331 330 330 329 329 329 328 327 325 323 322 320 318 317 316 316 315 314 313 312 311 309 308 306 305 304 303 301 300 299 297 296 295 293 292 291 289
348 349 350 349 348 348 349 349 350 351 351 350 351 351 352 352 350 351 355 356 355 356 356 357 358 358 359 359 359 357 355 353 352 351 348 346 345 344 342 341 340 339 338 337 336 335 334 334 333 333 332 331 330 330 330 329 328 327 325 324 322 321 320 319 318 317 317 316 315 313 312 310 309 307 306 305 303 302 301 299 298 296 295 294 292 291
350 350 351 351 349 348 349 349 349 350 351 350 350 350 350 351 349 348 351 354 354 354 355 355 356 356 357 358 359 357 356 354 353 352 350 348 347 345 343 342 341 341 340 339 338 337 336 335 334 334 333 332 331 331 331 330 330 329 327 326 324 323 322 321 321 320 319 318 317 315 314 312 311 309 308 307 305 304 303 301 300 298 297 295 294 292
352 352 353 353 352 350 350 350 349 349 350 350 350 350 349 350 349 347 348 352 353 352 353 354 354 355 355 356 358 358 356 354 354 354 352 349 348 346 344 343 343 342 341 340 339 337 336 336 335 335 334 332 332 332 332 332 331 330 329 328 326 325 325 324 323 323 322 320 319 317 316 315 313 312 310 309 307 306 305 303 301 300 298 297 295 294
354 355 355 355 354 352 351 352 351 350 351 351 351 351 350 350 350 347 346 349 351 351 351 352 352 353 354 355 356 357 356 355 354 354 353 351 349 347 346 345 344 343 342 340 339 338 337 336 335 335 334 333 333 333 333 333 332 332 331 329 328 327 326 326 325 324 323 322 321 320 318 317 315 314 312 311 310 308 307 305 303 302 300 298 297 296
357 357 357 356 357 355 354 355 356 355 355 355 354 354 353 352 352 350 347 347 349 349 349 350 351 351 352 353 354 356 356 355 354 354 354 352 350 349 347 346 344 343 342 341 339 338 337 336 336 336 335 334 333 333 333 333 333 333 332 330 329 328 328 327 327 326 325 324 323 322 320 319 317 316 315 314 312 311 309 307 305 304 302 301 300 299
358 358 358 358 358 358 358 358 359 358 357 357 356 356 355 354 354 353 350 348 349 349 348 349 350 350 351 352 353 354 356 355 354 354 354 353 351 350 348 346 344 343 342 341 340 338 337 337 336 336 335 334 334 334 334 334 334 334 332 331 330 330 329 329 329 328 327 325 325 324 322 321 320 319 318 316 315 313 311 309 308 307 305 304 303 302
357 357 357 357 357 357 357 357 357 358 357 357 357 357 356 355 355 354 352 350 350 349 348 348 348 349 349 350 351 352 354 354 354 354 354 353 352 350 348 346 345 343 343 342 340 339 338 337 337 336 336 335 334 334 334 334 334 334 333 332 331 331 331 330 330 329 328 327 326 325 324 323 322 321 320 319 317 316 314 312 310 309 307 306 306 305
354 354 354 354 355 355 356 356 355 356 357 357 356 356 356 355 355 355 354 352 351 350 349 348 348 348 348 349 349 350 352 353 353 353 354 353 352 350 348 347 345 344 343 342 341 340 339 338 337 337 336 335 335 335 335 335 335 335 334 333 333 332 332 332 332 331 330 329 328 327 326 325 325 324 323 321 319 317 315 314 312 311 310 309 308 308
351 352 352 352 352 354 355 355 355 354 355 356 356 355 355 355 355 354 353 353 352 351 349 348 348 347 347 348 348 349 350 352 352 353 353 353 352 350 349 347 346 345 344 343 342 340 339 339 338 338 337 336 335 335 335 335 335 335 335 334 334 333 333 333 333 332 331 330 329 329 328 327 327 326 324 323 321 319 317 316 315 314 313 312 311 310
349 349 350 351 351 351 352 354 354 353 353 354 354 355 355 355 355 354 353 352 352 351 350 349 348 348 347 347 348 348 349 350 351 352 352 352 352 351 349 348 346 345 344 343 342 341 340 339 339 339 338 337 336 336 336 336 336 336 336 335 335 334 334 334 334 333 332 332 331 330 330 329 329 328 326 325 323 321 319 318 317 316 315 314 313 312
347 348 349 349 349 349 350 351 352 353 352 352 353 354 354 354 354 354 353 352 351 351 350 349 348 348 347 347 347 348 349 349 350 351 351 351 351 351 349 348 347 346 345 344 343 342 341 340 340 339 339 338 337 336 336 336 336 336 336 336 335 335 335 335 335 334 334 333 332 331 331 330 330 329 328 326 325 323 321 320 319 318 317 315 314 313
346 346 347 348 348 348 349 349 350 352 352 352 352 353 353 353 353 353 352 351 351 350 350 349 348 348 347 347 346 347 348 349 349 350 350 351 351 350 349 348 347 346 345 344 344 343 342 341 340 340 340 338 337 337 337 336 336 336 336 336 336 336 336 335 335 335 335 334 333 332 332 332 331 331 330 328 327 325 323 322 321 320 318 317 316 315
345 345 345 347 347 347 348 348 348 350 351 351 351 351 351 352 352 352 352 351 350 350 349 348 348 347 347 347 346 346 347 348 348 349 350 350 350 350 349 348 347 346 345 345 344 343 342 341 340 340 340 339 338 337 337 336 336 336 336 336 336 336 336 336 336 336 335 335 334 333 333 333 333 332 331 330 329 327 325 324 323 322 320 319 317 316
344 344 344 346 347 346 347 347 346 347 348 349 349 350 350 350 350 351 350 350 350 349 349 348 347 347 346 346 346 345 346 347 348 348 349 349 349 349 349 348 347 346 345 344 344 343 342 341 340 340 340 339 338 337 337 337 336 337 337 337 337 337 337 337 337 336 336 336 335 335 334 334 334 333 332 331 330 329 327 325 324 323 322 320 318 317
343 343 343 343 345 345 345 345 345 345 346 347 348 348 349 348 349 349 349 349 349 349 348 348 347 346 346 345 345 345 345 346 347 348 348 349 349 349 349 348 347 346 345 344 344 343 342 341 341 340 340 340 339 338 337 337 337 337 337 337 337 337 337 337 337 337 337 337 336 336 335 335 335 334 334 332 332 331 329 327 326 325 324 322 320 318
341 342 341 341 342 344 344 344 344 343 344 345 346 347 348 347 347 348 348 348 348 348 348 347 346 345 345 345 345 345 345 346 347 347 348 348 348 348 348 347 346 345 345 344 343 343 342 341 341 340 340 340 339 338 337 337 337 337 337 337 337 338 338 338 338 338 338 338 337 337 336 336 336 335 334 334 333 332 332 330 328 326 325 324 321 319
339 340 341 340 340 342 342 343 343 343 343 344 345 346 346 346 346 347 347 347 347 347 347 346 345 345 344 344 345 345 345 345 346 347 347 347 347 347 347 347 346 345 344 344 343 343 342 341 341 340 341 340 339 338 337 337 337 337 337 338 338 338 338 338 339 339 339 338 338 337 337 337 337 336 335 334 334 334 333 332 330 328 327 326 323 321
338 339 340 339 339 340 340 341 342 343 343 343 344 345 345 345 345 345 346 346 346 346 346 345 345 344 344 344 344 344 344 345 346 346 346 347 347 347 347 346 346 345 344 343 343 342 342 341 341 340 341 340 340 339 338 337 337 337 338 338 338 339 339 339 339 339 339 339 339 338 338 338 338 337 336 336 335 334 334 334 333 330 328 327 325 323
336 337 338 338 338 339 339 339 340 342 343 343 343 344 344 344 344 344 345 344 344 345 345 345 344 344 343 343 343 344 344 344 345 346 346 346 346 346 346 346 345 344 343 343 343 342 342 341 341 340 341 341 340 339 338 338 337 338 338 339 339 339 339 340 340 340 340 340 339 339 338 338 338 338 338 337 336 335 334 335 335 333 330 329 328 325
335 335 336 337 338 339 339 339 339 341 342 343 343 343 343 343 343 343 343 343 343 344 344 344 344 343 343 343 343 343 344 344 345 345 345 345 345 345 345 345 345 344 343 343 342 342 342 341 341 340 341 341 341 340 339 338 338 338 338 339 339 339 340 340 340 340 340 340 340 340 339 339 339 339 339 338 337 337 335 335 335 336 334 331 329 327